Regional Weather Roundup
Issued by NWS

Home | Current Version | Previous Version | Text Only | Print | Product List | Glossary Off
Versions: 1 2 3 4 5 6 7 8 9 10 11 12 13 14 15 16 17 18 19 20 21 22 23 24 25 26 27 28 29 30 31 32 33 34 35 36 37 38 39 40 41 42 43 44 45 46 47

000
ASUS45 KBOU 210607
RWRCO

WEATHER ROUNDUP FOR COLORADO
NATIONAL WEATHER SERVICE DENVER/BOULDER CO
1200 AM MDT SUN SEP 21 2014

NOTE: "FAIR" INDICATES FEW OR NO CLOUDS BELOW 12000 FEET WITH NO
SIGNIFICANT WEATHER AND/OR OBSTRUCTIONS TO VISIBILITY.

COZ001>005-013-030-031-210700-
...NORTHWEST COLORADO...

CITY           SKY/WX    TMP DP  RH WIND       PRES   REMARKS
CRAIG          CLEAR     44  36  73 CALM      30.26S
HAYDEN         CLEAR     57  30  35 SE12      30.27S
MEEKER         CLEAR     53  35  50 E3        30.26S
MOUNT WERNER   NOT AVBL
STEAMBOAT SPGS CLEAR     55  38  52 W3        30.30F
WALDEN         CLEAR     52  37  58 SE3       30.42S
$$

COZ006>008-011-210700-
...WEST CENTRAL VALLEYS...

CITY           SKY/WX    TMP DP  RH WIND       PRES   REMARKS
GRAND JUNCTION PTCLDY    72  41  32 SE13      30.10S
MONTROSE       MOCLDY    72  44  36 SE10      30.21S
EAGLE          PTCLDY    61  41  48 CALM      30.31R
RIFLE          CLEAR     62  44  51 S3        30.18S
DELTA          MOCLDY    70  46  41 N13       30.17S
NUCLA          MOCLDY    70  43  37 E13       30.21R
$$

COZ017>023-064>068-210700-
...SOUTHWEST COLORADO...

CITY           SKY/WX    TMP DP  RH WIND       PRES   REMARKS
DURANGO        CLOUDY    68  42  38 E5        30.28R
CORTEZ         PTCLDY    76  42  29 SE16G30   30.18R
PAGOSA SPRINGS CLOUDY    64  43  46 CALM      30.38S
TELLURIDE      NOT AVBL
WOLF CREEK PAS CLOUDY    45  37  76 NE8       30.68S THUNDER
$$

COZ009-010-012-014-032>034-037-058>063-210700-
...CENTRAL COLORADO...

CITY           SKY/WX    TMP DP  RH WIND       PRES   REMARKS
ASPEN          PTCLDY    60  43  53 SE13      30.37R
BUENA VISTA    DRIZZLE   51  49  92 N3        30.53S
COPPER MTN     PTCLDY    46  36  66 S20G26    30.69S
BERTHOUD PASS  FAIR      37  36  93 E24G30    30.74F
COTTONWOOD PAS LGT RAIN  50  46  87 E5        30.62S VSB 1/4
GUNNISON       MOCLDY    59  43  55 E8        30.44R
KREMMLING      PTCLDY    55  39  54 CALM      30.38F
LEADVILLE      PTCLDY    47  40  76 S9        30.58R
MONARCH PASS   SNOW      41  41 100 E25       30.79F VSB<1/4
SALIDA         CLOUDY    55  53  91 W3        30.57S
SUNLIGHT       MOCLDY    54  36  50 CALM      30.59S
WILKERSON PASS NOT AVBL
$$

COZ069>075-210700-
...SAN LUIS VALLEY/SANGRE DE CRISTO MOUNTAINS...

CITY           SKY/WX    TMP DP  RH WIND       PRES   REMARKS
ALAMOSA        CLOUDY    65  45  48 E9        30.40R
LA VETA PASS   PTCLDY    46  43  87 NE14G20   30.60R
SAGUACHE       NOT AVBL
$$

COZ035-036-038>040-210700-
...NORTHERN COLORADO FRONT RANGE...

CITY           SKY/WX    TMP DP  RH WIND       PRES   REMARKS
DENVER INTL AP MOCLDY    62  52  69 SW5       30.32S
DMNS CITY PARK   N/A     62  52  69 S6        30.32S
AURORA         MOCLDY    61  54  76 S7        30.35R
FRONT RANGE AP MOCLDY    63  52  67 SW5       30.34R
ERIE MUNI ARPT MOCLDY    61  51  67 CALM      30.31R
BOULDER MUN AP MOCLDY    63  50  63 CALM      30.31R
CENTENNIAL     MOCLDY    59  55  87 S6        30.35S
BROOMFIELD     MOCLDY    63  50  63 CALM      30.34S
FORT COLLINS   MOCLDY    66  48  52 E17       30.32S
LONGMONT       MOCLDY    62  53  71 CALM      30.32S HAZE
$$

COZ041-046-047-076>085-087-088-210700-
...PIKES PEAK/PALMER DIVIDE AND SOUTHERN FOOTHILLS...

CITY           SKY/WX    TMP DP  RH WIND       PRES   REMARKS
COLO. SPRINGS  CLOUDY    66  50  56 SW3       30.40S
A. F. ACADEMY  CLOUDY    60  52  76 CALM      30.40F
ELLICOTT       NOT AVBL
FALCON         CLOUDY    56  49  75 S3        30.44S
FORT CARSON    CLOUDY    66  51  57 CALM      30.37R
LIMON          MOCLDY    59  47  64 S3        30.34R
MONUMENT HILL  CLOUDY    54  52  94 CALM      30.42R
TRINIDAD       CLOUDY    67  51  56 E10       30.33R
$$

COZ042>045-048>051-090-091-210700-
...NORTHEAST COLORADO...

CITY           SKY/WX    TMP DP  RH WIND       PRES   REMARKS
GREELEY ARPT   CLOUDY    66  45  45 SE7       30.32R
AKRON          CLOUDY    58  45  62 E9        30.32R
BURLINGTON     PTCLDY    58  48  69 CALM      30.27R
WRAY           CLEAR     62  46  57 NE9       30.28R
STERLING       PTCLDY    59  48  67 E5        30.29S
HOLYOKE        CLEAR     59  46  63 NE5       30.30R
FORT MORGAN    PTCLDY    59  46  60 NE10      30.31S
$$

COZ086-089-092>099-210700-
...SOUTHEAST COLORADO...

CITY           SKY/WX    TMP DP  RH WIND       PRES   REMARKS
PUEBLO         CLOUDY    70  49  47 E6        30.29R
LA JUNTA       CLOUDY    67  50  54 E6        30.25R
LAMAR          CLEAR     58  50  75 CALM      30.22R
SPRINGFIELD      N/A     66  55  67 NE7       30.26R
$$


USA.gov is the U.S. government's official web portal to all federal, state and local government web resources and services.